CARBONITE 1 (CBNT-1)

Last updated on Wed Sep 17 2025 00:02:31 GMT+0000 (Coordinated Universal Time)

1 40718U 15032D 25259.57687825 .00002020 00000+0 25948-3 0 9996 2 40718 97.6450 84.4813 0016111 110.3798 249.9149 14.82143764548791
UTC large
Height (km)
Speed (km/s)
/
Latitude / Longitude
Inclination (degrees)
Orbital Period (minutes)
Azimuth
Elevation
Range (km)
Doppler Factor

Next 0 passes for location: London (51.5072 / 0.1276)

Sorry there are no passes over London.